Clarksville, TN

8:00 AM CST on December 04, 2016 (GMT -0600)
Outlaw

Weather History for KCKV - April, 2014

Change the Weather History Date:

Friday, April 18, 2014

  Actual Average Record
Temperature  
Mean Temperature 60 °F 58 °F  
Max Temperature 73 °F 70 °F 91 °F (1955)
Min Temperature 47 °F 46 °F 24 °F (1983)
Degree Days  
Heating Degree Days 5 8  
Month to date heating degree days 157 182  
Since 1 July heating degree days 4289 3876  
Cooling Degree Days 0 1  
Month to date cooling degree days 15 18  
Year to date cooling degree days 26  
Growing Degree Days 9 (Base 50)    
Moisture  
Dew Point 45 °F    
Average Humidity 60    
Maximum Humidity 80    
Minimum Humidity 40    
Precipitation  
Precipitation 0.00 in 0.18 in 1.99 in (1969)
Month to date precipitation 2.88 2.23  
Year to date precipitation 13.78  
Sea Level Pressure  
Sea Level Pressure 30.24 in    
Wind  
Wind Speed 3 mph (East)    
Max Wind Speed 9 mph    
Max Gust Speed 12 mph    
Visibility 10 miles    
Events      
T = Trace of Precipitation, MM = Missing Value Source: NWS Daily Summary

Daily Weather History Graph

Daily Weather History Graph

Search for Another Location

Airport or City:

Trip Planner

Search our weather history database for the weather conditions in past years. The results will help you decide how hot, cold, wet, or windy it might be!

Date:

Astronomy

Apr. 18, 2014 Rise Set
Actual Time 6:11 AM CDT 7:26 PM CDT
Civil Twilight 5:45 AM CDT 7:53 PM CDT
Nautical Twilight 5:13 AM CDT 8:25 PM CDT
Astronomical Twilight 4:39 AM CDT 8:59 PM CDT
Moon 11:07 PM CDT (4/18) 8:37 AM CDT (4/18)
Length of Visible Light 14h 08m
Length of Day
13h 14m
Waning Gibbous, 87% of the Moon is Illuminated
Apr 18
Waning Gibbous
Apr 22
Last Quarter
Apr 29
New
May 6
First Quarter
May 14
Full

Hourly Weather History & Observations

Time (CDT) Temp. Dew Point Humidity Pressure Visibility Wind Dir Wind Speed Gust Speed Precip Events Conditions
12:52 AM 50.0 °F 42.1 °F 74% 30.25 in 10.0 mi SE 3.5 mph - N/A   Clear
1:52 AM 50.0 °F 39.9 °F 68% 30.25 in 10.0 mi Calm Calm - N/A   Scattered Clouds
2:52 AM 50.0 °F 41.0 °F 71% 30.26 in 10.0 mi SE 4.6 mph - N/A   Mostly Cloudy
3:52 AM 50.0 °F 39.0 °F 66% 30.25 in 10.0 mi ESE 3.5 mph - N/A   Clear
4:52 AM 50.0 °F 39.9 °F 68% 30.25 in 10.0 mi ESE 3.5 mph - N/A   Clear
5:52 AM 48.0 °F 39.9 °F 74% 30.26 in 10.0 mi ESE 3.5 mph - N/A   Clear
6:52 AM 48.0 °F 43.0 °F 83% 30.27 in 10.0 mi ESE 4.6 mph - N/A   Mostly Cloudy
7:52 AM 52.0 °F 44.1 °F 74% 30.29 in 10.0 mi SE 5.8 mph - N/A   Partly Cloudy
8:52 AM 57.0 °F 45.0 °F 64% 30.29 in 10.0 mi SE 5.8 mph - N/A   Clear
9:52 AM 61.0 °F 46.0 °F 58% 30.29 in 10.0 mi South 6.9 mph - N/A   Clear
10:52 AM 64.9 °F 46.9 °F 52% 30.29 in 10.0 mi Calm Calm - N/A   Scattered Clouds
11:52 AM 66.9 °F 46.0 °F 47% 30.28 in 10.0 mi Calm Calm - N/A   Scattered Clouds
12:52 PM 68.0 °F 48.0 °F 49% 30.26 in 10.0 mi Variable 3.5 mph - N/A   Overcast
1:52 PM 66.9 °F 50.0 °F 54% 30.25 in 10.0 mi NNW 5.8 mph - N/A   Overcast
2:52 PM 68.0 °F 48.9 °F 50% 30.22 in 10.0 mi North 4.6 mph - N/A   Overcast
4:52 PM 70.0 °F 46.9 °F 44% 30.17 in 10.0 mi East 4.6 mph - N/A   Clear
5:52 PM 70.0 °F 50.0 °F 49% 30.17 in 10.0 mi ENE 5.8 mph - N/A   Overcast
6:52 PM 69.1 °F 45.0 °F 42% 30.17 in 10.0 mi Calm Calm - N/A   Mostly Cloudy
7:52 PM 64.0 °F 46.9 °F 54% 30.17 in 10.0 mi North 3.5 mph - N/A   Clear
8:52 PM 61.0 °F 46.9 °F 60% 30.18 in 10.0 mi NE 3.5 mph - N/A   Clear
10:52 PM 57.0 °F 46.9 °F 69% 30.19 in 10.0 mi Calm Calm - N/A   Clear
11:52 PM 55.0 °F 46.9 °F 74% 30.19 in 10.0 mi Calm Calm - N/A   Clear